Weather History for KBKL - February, 2012

Change the Weather History Date:

Sunday, February 19, 2012

  Actual Average Record
Temperature  
Mean Temperature 32 °F -  
Max Temperature 33 °F 37 °F 55 °F (1997)
Min Temperature 30 °F 26 °F -2 °F (2015)
Degree Days  
Heating Degree Days 34    
Moisture  
Dew Point 20 °F    
Average Humidity 62    
Maximum Humidity 67    
Minimum Humidity 59    
Precipitation  
Precipitation 0.00 in - - ()
Sea Level Pressure  
Sea Level Pressure 30.16 in    
Wind  
Wind Speed 10 mph (NE)    
Max Wind Speed 15 mph    
Max Gust Speed 21 mph    
Visibility 10 miles    
Events      
Averages and records for this station are not official NWS values.
T = Trace of Precipitation, MM = Missing Value Source: NWS Daily Summary

Daily Weather History Graph

Daily Weather History Graph

Search for Another Location

Airport or City:

Trip Planner

Search our weather history database for the weather conditions in past years. The results will help you decide how hot, cold, wet, or windy it might be!

Date:

Astronomy

Feb. 19, 2012 Rise Set
Actual Time 7:17 AM EST 6:04 PM EST
Civil Twilight 6:48 AM EST 6:32 PM EST
Nautical Twilight 6:16 AM EST 7:05 PM EST
Astronomical Twilight 5:44 AM EST 7:37 PM EST
Moon 5:38 AM EST (2/19) 4:03 PM EST (2/19)
Length of Visible Light 11h 44m
Length of Day
10h 47m
Waning Crescent, 5% of the Moon is Illuminated
Feb 19
Waning Crescent
Feb 21
New
Feb 29
First Quarter
Mar 8
Full
Mar 14
Last Quarter

Hourly Weather History & Observations

Time (EST) Temp. Windchill Dew Point Humidity Pressure Visibility Wind Dir Wind Speed Gust Speed Precip Events Conditions
12:53 AM 32.0 °F 25.6 °F 19.0 °F 59% 30.19 in 10.0 mi NE 6.9 mph - N/A   Overcast
1:53 AM 32.0 °F 25.6 °F 19.0 °F 59% 30.20 in 10.0 mi NNE 6.9 mph - N/A   Overcast
2:53 AM 32.0 °F 25.6 °F 19.9 °F 61% 30.20 in 10.0 mi North 6.9 mph - N/A   Overcast
3:53 AM 30.9 °F 22.8 °F 19.0 °F 61% 30.18 in 10.0 mi North 9.2 mph - N/A   Overcast
4:53 AM 30.9 °F 22.2 °F 19.0 °F 61% 30.17 in 10.0 mi NE 10.4 mph - N/A   Overcast
5:53 AM 30.9 °F 22.8 °F 18.0 °F 59% 30.17 in 10.0 mi East 9.2 mph - N/A   Overcast
6:53 AM 30.9 °F 24.3 °F 18.0 °F 59% 30.16 in 10.0 mi ENE 6.9 mph - N/A   Overcast
7:53 AM 30.9 °F 23.5 °F 19.0 °F 61% 30.17 in 10.0 mi ENE 8.1 mph - N/A   Overcast
8:53 AM 32.0 °F 24.2 °F 19.9 °F 61% 30.18 in 10.0 mi ENE 9.2 mph - N/A   Overcast
9:53 AM 32.0 °F 23.0 °F 19.9 °F 61% 30.17 in 10.0 mi NE 11.5 mph - N/A   Overcast
10:08 AM 32.0 °F 25.6 °F 19.4 °F 60% 30.16 in 10.0 mi ENE 6.9 mph - N/A   Overcast
10:53 AM 32.0 °F 22.5 °F 19.9 °F 61% 30.18 in 10.0 mi NE 12.7 mph - N/A   Overcast
11:53 AM 33.1 °F 24.4 °F 19.9 °F 59% 30.18 in 10.0 mi NE 11.5 mph - N/A   Overcast
12:53 PM 33.1 °F 23.4 °F 21.0 °F 61% 30.14 in 10.0 mi NNE 13.8 mph - N/A   Overcast
1:53 PM 33.1 °F 23.4 °F 21.0 °F 61% 30.13 in 10.0 mi NE 13.8 mph - N/A   Mostly Cloudy
2:53 PM 32.0 °F 21.6 °F 19.9 °F 61% 30.13 in 10.0 mi NNE 15.0 mph - N/A   Overcast
3:53 PM 30.9 °F 21.2 °F 19.9 °F 64% 30.12 in 10.0 mi NNE 12.7 mph - N/A   Overcast
4:53 PM 30.9 °F 20.2 °F 21.0 °F 67% 30.12 in 10.0 mi NNE 15.0 mph - N/A   Overcast
5:53 PM 30.9 °F 20.2 °F 19.9 °F 64% 30.13 in 10.0 mi NNE 15.0 mph - N/A   Overcast
6:53 PM 30.9 °F 20.7 °F 19.9 °F 64% 30.14 in 10.0 mi NE 13.8 mph - N/A   Overcast
7:53 PM 30.9 °F 21.2 °F 19.9 °F 64% 30.15 in 10.0 mi NNE 12.7 mph - N/A   Overcast
8:53 PM 30.9 °F 21.2 °F 21.0 °F 67% 30.15 in 10.0 mi NNE 12.7 mph - N/A   Overcast
9:53 PM 30.9 °F 20.7 °F 21.0 °F 67% 30.16 in 10.0 mi NNE 13.8 mph 20.7 mph N/A   Overcast
10:53 PM 30.9 °F 21.2 °F 19.9 °F 64% 30.18 in 10.0 mi NNE 12.7 mph - N/A   Overcast
11:53 PM 30.0 °F 20.5 °F 19.9 °F 66% 30.19 in 10.0 mi North 11.5 mph - N/A   Overcast